This demonstration page uses our WeatherBlox Daily Observations layout. Learn more.

Left ArrowRight Arrow

44.89941, -97.11507

Hourly Observations for August 23, 2016

Temp ( °F °C ) Dew Point ( °F °C ) Humidity (%) Winds ( mph kmh ) Pressure ( in mb ) Visibility ( mi km ) Precip ( " mm )
12:53 am 00:53 Clear 72 22.2 62 16.7 71 71 S 18 30 29.77 1008 10 16 0.00 0.00
1:53 am 01:53 Clear 71 21.7 61 16.1 71 71 S 17 28 29.77 1008 10 16 0.00 0.00
2:53 am 02:53 Clear 70 21.1 61 16.1 73 73 S 16 26 29.76 1008 10 16 0.00 0.00
3:53 am 03:53 Clear 69 20.6 60 15.6 73 73 S 15 24 29.75 1008 10 16 0.00 0.00
4:53 am 04:53 Clear 69 20.6 59 15 70 70 S 18 30 29.74 1007 10 16 0.00 0.00
5:53 am 05:53 Clear 68 20 59 15 73 73 S 16 26 29.74 1007 10 16 0.00 0.00
6:53 am 06:53 Sunny 67 19.4 59 15 76 76 S 13 20 29.76 1008 10 16 0.00 0.00
7:53 am 07:53 Sunny 69 20.6 60 15.6 73 73 S 16 26 29.76 1008 10 16 0.00 0.00
8:53 am 08:53 Sunny 72 22.2 61 16.1 68 68 S 18 30 29.75 1008 10 16 0.00 0.00
9:53 am 09:53 Sunny 74 23.3 63 17.2 69 69 S 15 24 29.75 1008 10 16 0.00 0.00
10:53 am 10:53 Sunny 78 25.6 65 18.3 64 64 S 17 28 29.75 1007 10 16 0.00 0.00
11:53 am 11:53 Sunny 79 26.1 65 18.3 62 62 S 21 33 29.76 1008 10 16 0.00 0.00
12:53 pm 12:53 Sunny 80 26.7 67 19.4 64 64 S 16 26 29.76 1008 10 16 0.00 0.00
1:53 pm 13:53 Sunny 83 28.3 64 17.8 53 53 S 23 37 29.75 1008 10 16 0.00 0.00
2:53 pm 14:53 Sunny 80 26.7 64 17.8 58 58 S 22 35 29.75 1007 10 16 0.00 0.00
3:53 pm 15:53 Sunny 79 26.1 65 18.3 62 62 S 24 39 29.75 1008 10 16 0.00 0.00
4:53 pm 16:53 Mostly Sunny 78 25.6 67 19.4 69 69 S 17 28 29.77 1008 10 16 0.00 0.00
5:53 pm 17:53 Mostly Sunny 77 25 67 19.4 71 71 S 14 22 29.76 1008 10 16 0.00 0.00
6:53 pm 18:53 Mostly Cloudy 75 23.9 68 20 79 79 S 14 22 29.75 1007 10 16 0.00 0.00
7:42 pm 19:42 Partly Cloudy 72 22.2 68 20 87 87 S 9 15 29.71 1006 10 16 0.00 0.00
7:53 pm 19:53 Mostly Sunny 72 22.2 68 20 87 87 S 9 15 29.75 1008 10 16 0.00 0.00
8:53 pm 20:53 Mostly Cloudy 71 21.7 68 20 90 90 SSE 6 9 29.76 1008 10 16 0.00 0.00
9:53 pm 21:53 Cloudy 71 21.7 67 19.4 87 87 SSE 6 9 29.78 1008 10 16 0.00 0.00
10:06 pm 22:06 Cloudy 70 21.1 67 19.4 90 90 S 6 9 29.77 1008 10 16 0.00 0.00
10:49 pm 22:49 Partly Cloudy 70 21 66 19 88 88 S 8 13 29.77 1008 10 16 0.00 0.00
10:53 pm 22:53 Partly Cloudy 69 20.6 67 19.4 93 93 S 8 13 29.79 1009 10 16 0.00 0.00
11:02 pm 23:02 Mostly Cloudy 69 20.6 67 19.4 93 93 S 8 13 29.77 1008 10 16 0.00 0.00
11:11 pm 23:11 Mostly Cloudy 69 20.6 67 19.4 93 93 S 10 17 29.77 1008 10 16 0.00 0.00
11:19 pm 23:19 Mostly Cloudy 69 20.6 67 19.4 93 93 S 9 15 29.77 1008 10 16 0.00 0.00
11:28 pm 23:28 Cloudy 69 20.6 67 19.4 93 93 S 10 17 29.77 1008 10 16 0.00 0.00
11:45 pm 23:45 Cloudy 70 21.1 67 19.4 90 90 SSW 8 13 29.77 1008 10 16 0.00 0.00
11:53 pm 23:53 Cloudy 70 21.1 68 20 93 93 SSW 9 15 29.81 1010 10 16 0.00 0.00

Powered by AerisWeather